| time (UTC) | temp F | wind direction | speed MPH | gust MPH | rain 1hr in | rain 24hr in | rain mn in | humidity % | barometer mb |
| 20260905182155 | 59 | 280 | 12.0 | 0.0 | 0.00 | 0.00 | 0.00 | 51 | |
| 20260905172241 | 61 | 280 | 14.0 | 0.0 | 0.00 | 0.00 | 0.00 | 48 | |
| 20260905162558 | 63 | 270 | 18.0 | 29.0 | 0.00 | 0.00 | 0.00 | 48 | |
| 20260905152035 | 64 | 270 | 16.0 | 0.0 | 0.00 | 0.00 | 0.00 | 45 | |
| 20260905142033 | 64 | 290 | 16.0 | 0.0 | 0.00 | 0.00 | 0.00 | 39 | |
| 20260905132351 | 64 | 280 | 18.0 | 31.0 | 0.00 | 0.00 | 0.00 | 39 | |
| 20260905122249 | 61 | 290 | 16.0 | 0.0 | 0.00 | 0.00 | 0.00 | 59 | |
| 20260905112209 | 63 | 280 | 14.0 | 24.0 | 0.00 | 0.00 | 0.00 | 51 | |
| 20260905102618 | 61 | 270 | 16.0 | 26.0 | 0.00 | 0.00 | 0.00 | 67 | |
| 20260905092137 | 57 | 270 | 14.0 | 0.0 | 0.00 | 0.00 | 0.00 | 76 | |
| 20260905082216 | 54 | 280 | 14.0 | 0.0 | 0.00 | 0.00 | 0.00 | 81 | |
| 20260905072528 | 54 | 270 | 14.0 | 24.0 | 0.00 | 0.00 | 0.00 | 87 | |
| 20260905062217 | 54 | 240 | 9.0 | 0.0 | 0.00 | 0.00 | 0.00 | 87 | |
| 20260905052214 | 57 | 290 | 12.0 | 0.0 | 0.00 | 0.00 | 0.00 | 71 | |
| 20260905042617 | 57 | 260 | 12.0 | 0.0 | 0.00 | 0.00 | 0.00 | 76 | |
| 20260905032221 | 59 | 230 | 7.0 | 0.0 | 0.00 | 0.00 | 0.00 | 72 | |
| 20260905022216 | 59 | 0 | 2.0 | 0.0 | 0.00 | 0.00 | 0.00 | 72 | |
| 20260905012534 | 59 | 30 | 9.0 | 0.0 | 0.00 | 0.00 | 0.00 | 72 | |
| 20260905002230 | 61 | 50 | 7.0 | 0.0 | 0.00 | 0.00 | 0.00 | 72 | |
| 20260904232306 | 68 | 230 | 7.0 | 0.0 | 0.00 | 0.00 | 0.00 | 52 | |
| 20260904222632 | 68 | 220 | 12.0 | 0.0 | 0.00 | 0.00 | 0.00 | 52 | |
| 20260904212216 | 70 | 220 | 14.0 | 0.0 | 0.00 | 0.00 | 0.00 | 49 | |
| 20260904202214 | 70 | 220 | 14.0 | 0.0 | 0.00 | 0.00 | 0.00 | 52 | |
| 20260904192503 | 72 | 240 | 14.0 | 0.0 | 0.00 | 0.00 | 0.00 | 49 |